Location: *
(0.1100°N, 5.5000°E)
Time: 22:24:49
(UTC+00:00)

COSMOS 2251 DEB - Visible Passes

Search period start: 29 November 2023 00:00
Search period end: 09 December 2023 00:00
Orbit: 710 x 755 km, 74.0° (Epoch: 28 November)

Date Brightness Start Highest point End Pass type
(mag) Time Alt. Az. Time Alt. Az. Time Alt. Az.
29 Nov ? 18:33:29 10° N 18:38:28 60° ENE 18:43:33 10° SSE visible
30 Nov ? 17:47:08 10° NNE 17:50:58 21° ENE 17:54:49 10° SE visible
30 Nov ? 19:28:10 10° NW 19:31:57 21° WSW 19:35:48 10° SSW visible
01 Dec ? 18:39:24 10° NNW 18:44:23 59° WSW 18:49:28 10° S visible
02 Dec ? 17:51:56 10° N 17:56:50 48° ENE 18:01:48 10° SSE visible
03 Dec ? 18:46:02 10° NW 18:50:15 26° WSW 18:54:31 10° SSW visible
04 Dec ? 17:57:32 10° NNW 18:02:38 75° WSW 18:07:47 10° S visible
05 Dec ? 04:45:51 10° SE 04:48:33 15° ESE 04:51:15 10° ENE visible
05 Dec ? 18:54:25 10° W 18:56:02 11° WSW 18:57:40 10° WSW visible
06 Dec ? 18:03:49 10° NW 18:08:21 32° WSW 18:12:58 10° SSW visible
07 Dec ? 04:49:49 10° SSE 04:54:17 33° ESE 04:58:41 10° NE visible
08 Dec ? 04:05:03 10° ESE 04:06:33 11° ESE 04:08:04 10° E visible
08 Dec ? 18:11:14 10° WNW 18:14:02 15° WSW 18:16:51 10° SW visible
